Starlink 34887

operational
NORAD ID: 65103 Int'l Des: 2025-167 Owner: SPXS Country: US Constellation: starlink
LEOCIRCULAR

About Starlink 34887

Description loading...

Live Position

Loading 3D Globe...

Upcoming Passes

Altitude History

Altitude vs Time

uPlot chart will show altitude changes over time

Two-Line Element Set

1 65103U 25167AB 26062.16912449 .00031926 00000-0 10849-2 0 9993
2 65103 53.1604 56.7866 0001345 98.1496 261.9657 15.30216805 32488
Epoch: Mar 3, 2026 • Age: 25 hours

Current Status

Altitude 475.5 km
Velocity 7.63 km/s
Sub-Earth Point 26.08°N, 33.39°E
Launch Date Aug 4, 2025
Age 0.5 years
Type internet

Technical Details

Classification Payload
Mass 575.00 kg
Dry Mass 530.00 kg
Total Mass 575.00 kg
Length 0.30 m
Diameter 4.10 m
Span 29.00 m
Shape Box + pan
Manufacturer SPXS
Bus Type Starlink V2MO
Phase Status In Orbit
Owner/State SPXS/US

Large Constellations

Loading constellations...